Location: Holbach
(51.5399°N, 10.6036°E)
Time: 07:44:04
(UTC+00:00)

KORONAS-FOTON - Pass Details

Date: 18 September 2020
Orbit: 506 x 531 km, 82.4° (Epoch: 20 October)

Event Time Altitude Azimuth Distance (km) Brightness Sun altitude
Rises 19:19:11 0° 349° (N) 2,688 8.0 -18.0°
Reaches altitude 10° 19:21:21 10° 350° (N) 1,795 7.0 -18.3°
Maximum altitude 19:25:18 88° 74° (ENE) 541 3.7 -18.8°
Enters shadow 19:26:45 38° 168° (SSE) 827 4.5 -19.0°
